"2016-07-14 00:00:00",1807129,5.675,112.9,6.425,0.304,24.56,110.7497,26.82,27.81,12.35,0,111.4,12.98,27.67,74.9
"2016-07-14 00:00:30",1807130,5.922,104.2,4.415,0.261,24.64,110.7531,26.83,27.81,12.48,0,111.4,12.98,27.68,66.2
"2016-07-14 00:01:00",1807131,6.29,111.6,3.819,0.394,24.65,110.757,26.84,27.81,12.69,0,111.4,12.99,27.69,73.6
"2016-07-14 00:01:30",1807132,7.058,113.3,6.094,0.41,24.55,110.7643,26.86,27.82,12.82,0,111.4,12.98,27.70,75.3
"2016-07-14 00:02:00",1807133,7.546,109.2,4.233,0.226,24.52,110.7677,26.87,27.83,12.75,0,111.4,12.98,27.71,71.2
"2016-07-14 00:02:30",1807134,7.365,104.7,2.203,0.239,24.57,110.7708,26.88,27.83,12.69,0,111.4,12.99,27.72,66.7
"2016-07-14 00:03:00",1807135,6.989,100.8,4.008,0.322,24.58,110.771,26.88,27.81,12.68,0,111.4,12.98,27.72,62.8
"2016-07-14 00:03:30",1807136,5.844,110.8,2.286,0.399,24.5,110.7699,26.87,27.83,12.67,0,111.4,12.99,27.72,72.8
"2016-07-14 00:04:00",1807137,5.563,115.1,2.355,0.457,24.43,110.7691,26.87,27.83,12.65,0,111.4,12.99,27.72,77.1
"2016-07-14 00:04:30",1807138,6.73,119.2,2.933,0.179,24.45,110.7705,26.87,27.83,12.67,0,111.4,12.99,27.72,81.2
"2016-07-14 00:05:00",1807139,6.454,117.6,3.663,0.509,24.53,110.7705,26.87,27.81,12.62,0,111.4,12.99,27.72,79.6
"2016-07-14 00:05:30",1807140,5.779,121.8,2.887,0.155,24.49,110.7696,26.87,27.83,12.6,0,111.4,12.99,27.72,83.8
"2016-07-14 00:06:00",1807141,5.383,125.3,5.046,0.257,24.42,110.7716,26.88,27.84,12.64,0,111.4,12.99,27.72,87.3
"2016-07-14 00:06:30",1807142,6.146,113.6,3.662,0.385,24.47,110.7744,26.88,27.83,12.67,0,111.4,12.98,27.73,75.6
"2016-07-14 00:07:00",1807143,6.744,105.1,2.032,0.21,24.48,110.7741,26.88,27.84,12.65,0,111.4,12.99,27.73,67.1
"2016-07-14 00:07:30",1807144,6.704,106.5,4.642,0.349,24.45,110.771,26.88,27.84,12.7,0,111.4,12.98,27.72,68.5
"2016-07-14 00:08:00",1807145,7.142,107.8,4.452,0.415,24.55,110.7699,26.87,27.82,12.82,0,111.4,12.98,27.72,69.8
"2016-07-14 00:08:30",1807146,7.544,111.9,2.467,0.326,24.48,110.7623,26.85,27.84,12.88,0,111.4,12.98,27.70,73.9
"2016-07-14 00:09:00",1807147,6.994,109,2.057,0.205,24.5,110.7556,26.84,27.83,12.94,0,111.4,12.98,27.68,71.0
"2016-07-14 00:09:30",1807148,7.102,114.3,2.974,0.26,24.53,110.748,26.82,27.82,12.94,0,111.4,12.98,27.66,76.3
"2016-07-14 00:10:00",1807149,7.22,119.8,0.954,0.203,24.56,110.7435,26.81,27.83,13,0,111.4,12.98,27.65,81.8
"2016-07-14 00:10:30",1807150,7.571,114.6,3.009,0.361,24.67,110.7407,26.8,27.82,13.01,0,111.4,12.98,27.64,76.6
"2016-07-14 00:11:00",1807151,7.182,116.6,2.969,0.307,24.68,110.7407,26.8,27.81,13.07,0,111.4,12.98,27.64,78.6
"2016-07-14 00:11:30",1807152,6.096,110.5,3.952,0.363,24.73,110.7407,26.8,27.8,13.05,0,111.4,12.98,27.64,72.5
"2016-07-14 00:12:00",1807153,6.029,112.5,2.431,0.523,24.88,110.7407,26.8,27.79,13.08,0,111.4,12.98,27.64,74.5
"2016-07-14 00:12:30",1807154,5.583,109.7,6.099,0.446,24.69,110.7407,26.8,27.79,13.15,0,111.4,12.98,27.64,71.7
"2016-07-14 00:13:00",1807155,6.594,113.8,5.72,0.754,24.81,110.7407,26.8,27.79,13.25,0,111.4,12.98,27.64,75.8
"2016-07-14 00:13:30",1807156,7.542,113,2,0.403,24.74,110.7407,26.8,27.81,13.23,0,111.4,12.98,27.64,75.0
"2016-07-14 00:14:00",1807157,7.277,118.3,4.408,0.467,24.75,110.7407,26.8,27.81,13.17,0,111.4,12.97,27.64,80.3
"2016-07-14 00:14:30",1807158,7.724,115.9,1.048,0.13,24.69,110.7407,26.8,27.8,13.2,0,111.4,12.98,27.64,77.9
"2016-07-14 00:15:00",1807159,7.638,114,1.772,0.254,24.72,110.7407,26.8,27.79,13.25,0,111.4,12.98,27.64,76.0
"2016-07-14 00:15:30",1807160,6.824,109.7,3.114,0.771,24.86,110.7368,26.79,27.78,13.29,0,111.4,12.98,27.63,71.7
"2016-07-14 00:16:00",1807161,6.757,111.2,2.694,0.524,24.74,110.732,26.78,27.78,13.23,0,111.4,12.98,27.62,73.2
"2016-07-14 00:16:30",1807162,7.697,108.5,5.045,0.345,24.79,110.7262,26.76,27.76,13.2,0,111.4,12.98,27.61,70.5
"2016-07-14 00:17:00",1807163,7.291,110.5,6.987,0.265,24.87,110.7135,26.73,27.76,13.26,0,111.4,12.98,27.57,72.5
"2016-07-14 00:17:30",1807164,7.195,101.3,2.655,0.246,25.19,110.7074,26.71,27.76,13.29,0,111.4,12.98,27.56,63.3
"2016-07-14 00:18:00",1807165,6.81,98.6,4.929,0.483,25.25,110.7071,26.71,27.76,13.38,0,111.4,12.98,27.56,60.6
"2016-07-14 00:18:30",1807166,7.107,108.3,3.739,0.386,25.16,110.7071,26.71,27.75,13.39,0,111.4,12.98,27.56,70.3
"2016-07-14 00:19:00",1807167,7.247,107.3,2.68,0.142,25.14,110.7071,26.71,27.73,13.32,0,111.4,12.98,27.56,69.3
"2016-07-14 00:19:30",1807168,6.358,98.6,5.869,0.39,25.18,110.7059,26.71,27.73,13.47,0,111.4,12.98,27.55,60.6
"2016-07-14 00:20:00",1807169,7.241,99.4,4.766,0.447,25.22,110.6981,26.69,27.71,13.56,0,111.4,12.98,27.53,61.4
"2016-07-14 00:20:30",1807170,7.257,107.2,3.409,0.445,25.2,110.6877,26.66,27.7,13.6,0,111.4,12.98,27.51,69.2
"2016-07-14 00:21:00",1807171,8.34,109.5,3.755,0.538,25.08,110.6748,26.63,27.7,13.65,0,111.4,12.98,27.47,71.5
"2016-07-14 00:21:30",1807172,7.946,109.3,2.604,0.382,24.88,110.6734,26.63,27.68,13.46,0,111.4,12.98,27.47,71.3
"2016-07-14 00:22:00",1807173,7.173,104.7,3.825,0.296,24.84,110.6734,26.63,27.66,13.36,0,111.4,12.98,27.47,66.7
"2016-07-14 00:22:30",1807174,6.708,106.5,2.616,0.54,24.71,110.6734,26.63,27.66,13.36,0,111.4,12.98,27.47,68.5
"2016-07-14 00:23:00",1807175,7.38,104.6,3.069,0.64,24.72,110.6734,26.63,27.66,13.5,0,111.4,12.98,27.47,66.6
"2016-07-14 00:23:30",1807176,7.302,107,3.09,0.302,24.66,110.6734,26.63,27.65,13.49,0,111.4,12.98,27.47,69.0
"2016-07-14 00:24:00",1807177,6.731,96.5,3.992,0.338,24.8,110.6712,26.62,27.64,13.53,0,111.4,12.99,27.46,58.5
"2016-07-14 00:24:30",1807178,7.457,98.8,3.281,0.362,24.71,110.6712,26.62,27.63,13.69,0,111.4,12.98,27.46,60.8
"2016-07-14 00:25:00",1807179,7.288,106.2,3.015,0.589,24.73,110.6684,26.61,27.63,13.66,0,111.4,12.99,27.46,68.2
"2016-07-14 00:25:30",1807180,7.414,107.6,2.79,0.155,24.73,110.6644,26.6,27.63,13.64,0,111.4,12.99,27.45,69.6
"2016-07-14 00:26:00",1807181,6.981,107.2,3.044,0.474,24.76,110.6616,26.59,27.61,13.68,0,111.4,12.99,27.44,69.2
"2016-07-14 00:26:30",1807182,7.28,104,1.93,0.362,24.83,110.654,26.58,27.61,13.66,0,111.4,12.99,27.42,66.0
"2016-07-14 00:27:00",1807183,7.121,102.6,3.614,0.402,24.84,110.6479,26.56,27.62,13.63,0,111.4,12.98,27.40,64.6
"2016-07-14 00:27:30",1807184,7.082,94.8,3.648,0.362,24.87,110.642,26.54,27.61,13.65,0,111.4,12.98,27.39,56.8
"2016-07-14 00:28:00",1807185,6.652,92.6,1.569,0.213,25.02,110.64,26.54,27.6,13.7,0,111.4,12.98,27.38,54.6
"2016-07-14 00:28:30",1807186,7.308,94.6,3.791,0.402,24.95,110.6397,26.54,27.59,13.72,0,111.4,12.98,27.38,56.6
"2016-07-14 00:29:00",1807187,7.321,97.5,6.138,0.541,24.96,110.6397,26.54,27.59,13.81,0,111.4,12.98,27.38,59.5
"2016-07-14 00:29:30",1807188,6.685,112,2.02,0.253,25,110.6397,26.54,27.58,13.72,0,111.4,12.98,27.38,74.0
"2016-07-14 00:30:00",1807189,6.28,108,2.974,0.589,25.17,110.6397,26.54,27.58,13.64,0,111.4,12.98,27.38,70.0
"2016-07-14 00:30:30",1807190,5.746,107.2,2.474,0.375,25.16,110.6397,26.54,27.57,13.54,0,111.4,12.98,27.38,69.2
"2016-07-14 00:31:00",1807191,6.547,100.9,2.748,0.219,25.12,110.6397,26.54,27.57,13.59,0,111.4,12.98,27.38,62.9
"2016-07-14 00:31:30",1807192,6.93,98.7,2.105,0.325,25.17,110.6389,26.54,27.56,13.52,0,111.4,12.98,27.38,60.7
"2016-07-14 00:32:00",1807193,7.14,102.6,2.502,0.405,25.13,110.6251,26.5,27.56,13.65,0,111.4,12.98,27.35,64.6
"2016-07-14 00:32:30",1807194,6.536,98.9,2.921,0.368,25.01,110.6148,26.47,27.55,13.71,0,111.4,12.98,27.32,60.9
"2016-07-14 00:33:00",1807195,6.63,102.3,3.748,0.409,24.96,110.6072,26.46,27.54,13.8,0,111.4,12.98,27.30,64.3
"2016-07-14 00:33:30",1807196,7.007,100.7,2.227,0.325,25.25,110.6061,26.45,27.54,13.69,0,111.4,12.99,27.30,62.7
"2016-07-14 00:34:00",1807197,6.38,98.2,2.933,0.479,25.14,110.6061,26.45,27.53,13.74,0,111.4,12.99,27.30,60.2
"2016-07-14 00:34:30",1807198,6.675,101.5,2.082,0.332,25.1,110.6061,26.45,27.51,13.97,0,111.4,12.99,27.30,63.5
"2016-07-14 00:35:00",1807199,6.508,100,2.565,0.305,25.13,110.6055,26.45,27.51,13.92,0,111.4,12.99,27.29,62.0
"2016-07-14 00:35:30",1807200,6.609,102.5,2.065,0.247,25.07,110.5968,26.43,27.49,14.11,0,111.4,12.99,27.27,64.5
"2016-07-14 00:36:00",1807201,7.309,106.4,1.921,0.48,25.12,110.5842,26.4,27.49,14.26,0,111.4,12.99,27.24,68.4
"2016-07-14 00:36:30",1807202,7.42,105.5,2.514,0.218,25.06,110.575,26.37,27.48,14.25,0,111.4,12.99,27.22,67.5
"2016-07-14 00:37:00",1807203,6.987,106.9,3.252,0.206,24.99,110.5746,26.37,27.48,14.19,0,111.4,12.99,27.22,68.9
"2016-07-14 00:37:30",1807204,7.786,109.3,3.092,0.379,24.99,110.5808,26.39,27.47,14.17,0,111.4,12.99,27.23,71.3
"2016-07-14 00:38:00",1807205,7.31,110.3,2.242,0.387,25,110.5842,26.4,27.45,14.15,0,111.4,12.99,27.24,72.3
"2016-07-14 00:38:30",1807206,6.733,110.8,1.467,0.339,24.87,110.5873,26.4,27.45,14.1,0,111.4,12.99,27.25,72.8
"2016-07-14 00:39:00",1807207,6.427,106.7,6.344,0.554,24.85,110.5914,26.41,27.43,14.09,0,111.4,12.99,27.26,68.7
"2016-07-14 00:39:30",1807208,7.959,98.8,7.752,0.597,24.72,110.5859,26.4,27.42,14.23,0,111.4,12.99,27.24,60.8
"2016-07-14 00:40:00",1807209,7.068,100.7,2.092,0.205,24.64,110.5897,26.41,27.42,14.27,0,111.4,12.99,27.25,62.7
"2016-07-14 00:40:30",1807210,6.751,91.4,3.001,0.261,24.76,110.5853,26.4,27.41,14.26,0,111.4,12.99,27.24,53.4
"2016-07-14 00:41:00",1807211,7.258,94.7,2.641,0.211,24.72,110.5796,26.38,27.4,14.29,0,111.4,12.99,27.23,56.7
"2016-07-14 00:41:30",1807212,7.221,95.4,2.725,0.187,24.68,110.5695,26.36,27.39,14.36,0,111.4,12.99,27.20,57.4
"2016-07-14 00:42:00",1807213,7.345,111.2,4.346,0.496,24.74,110.5694,26.36,27.4,14.51,0,111.4,12.99,27.20,73.2
"2016-07-14 00:42:30",1807214,7.393,105.6,2.753,0.369,24.8,110.5682,26.35,27.39,14.56,0,111.4,12.99,27.20,67.6
"2016-07-14 00:43:00",1807215,7.732,102.4,1.937,0.232,24.87,110.5697,26.36,27.37,14.39,0,111.4,12.99,27.20,64.4
"2016-07-14 00:43:30",1807216,7.686,100.4,4.407,0.319,24.86,110.5732,26.37,27.36,14.4,0,111.4,12.99,27.21,62.4
"2016-07-14 00:44:00",1807217,7.729,105.1,3.044,0.543,24.9,110.5611,26.34,27.35,14.48,0,111.4,12.99,27.18,67.1
"2016-07-14 00:44:30",1807218,6.932,106.8,2.654,0.366,25.03,110.5469,26.3,27.36,14.55,0,111.4,12.99,27.14,68.8
"2016-07-14 00:45:00",1807219,7.215,106.6,4.899,0.333,25.09,110.5416,26.29,27.34,14.51,0,111.4,12.99,27.13,68.6
"2016-07-14 00:45:30",1807220,7.987,103.6,3.51,0.46,25.2,110.542,26.29,27.32,14.57,0,111.4,12.99,27.13,65.6
"2016-07-14 00:46:00",1807221,8.46,106.9,2.308,0.28,25.25,110.5406,26.28,27.3,14.56,0,111.3,12.99,27.13,68.9
"2016-07-14 00:46:30",1807222,8.04,110.7,1.621,0.186,25.24,110.5226,26.24,27.27,14.45,0,111.4,12.99,27.08,72.7
"2016-07-14 00:47:00",1807223,7.804,107.3,2.673,0.35,25.24,110.5086,26.2,27.26,14.5,0,111.4,12.99,27.04,69.3
"2016-07-14 00:47:30",1807224,7.916,104,2.354,0.161,25.17,110.5086,26.2,27.25,14.54,0,111.3,12.99,27.04,66.0
"2016-07-14 00:48:00",1807225,8.38,105.2,3.078,0.301,25.08,110.4965,26.17,27.22,14.62,0,111.3,12.99,27.01,67.2
"2016-07-14 00:48:30",1807226,8.38,110,2.232,0.371,25.01,110.4771,26.12,27.21,14.56,0,111.3,12.99,26.96,72.0
"2016-07-14 00:49:00",1807227,7.688,109.8,2.018,0.299,24.93,110.4749,26.11,27.19,14.5,0,111.3,12.99,26.96,71.8
"2016-07-14 00:49:30",1807228,7.986,109.2,1.851,0.378,24.86,110.4749,26.11,27.17,14.85,0,111.3,12.99,26.96,71.2
"2016-07-14 00:50:00",1807229,7.565,110.5,2.336,0.334,24.86,110.4704,26.1,27.15,14.89,0,111.3,12.99,26.95,72.5
"2016-07-14 00:50:30",1807230,7.724,109.7,2.241,0.317,24.83,110.4597,26.08,27.13,14.57,0,111.3,12.99,26.92,71.7
"2016-07-14 00:51:00",1807231,7.797,110.7,4.27,0.152,24.71,110.4485,26.05,27.12,14.54,0,111.3,12.99,26.89,72.7
"2016-07-14 00:51:30",1807232,7.798,112.9,2.471,0.296,24.75,110.4415,26.03,27.1,14.52,0,111.3,13,26.87,74.9
"2016-07-14 00:52:00",1807233,7.826,112.7,1.171,0.313,24.73,110.4412,26.03,27.08,14.45,0,111.3,13,26.87,74.7
"2016-07-14 00:52:30",1807234,7.459,113.9,2.63,0.229,24.72,110.4412,26.03,27.09,14.33,0,111.3,13,26.87,75.9
"2016-07-14 00:53:00",1807235,7.786,112.3,1.989,0.392,24.71,110.4412,26.03,27.08,14.42,0,111.3,12.99,26.87,74.3
"2016-07-14 00:53:30",1807236,7.135,115.2,3.605,0.306,24.73,110.4412,26.03,27.07,14.42,0,111.3,13,26.87,77.2
"2016-07-14 00:54:00",1807237,7.304,114.3,2.296,0.358,24.65,110.4412,26.03,27.07,14.18,0,111.3,13,26.87,76.3
"2016-07-14 00:54:30",1807238,7.376,111.4,3.081,0.344,24.61,110.4412,26.03,27.06,14.3,0,111.3,13,26.87,73.4
"2016-07-14 00:55:00",1807239,7.126,110.5,4.71,0.321,24.62,110.4412,26.03,27.05,14.38,0,111.3,13,26.87,72.5
"2016-07-14 00:55:30",1807240,7.552,117.3,3.161,0.276,24.7,110.4412,26.03,27.04,14.17,0,111.3,13,26.87,79.3
"2016-07-14 00:56:00",1807241,7.271,110.7,2.961,0.237,24.78,110.4412,26.03,27.05,14.21,0,111.3,13,26.87,72.7
"2016-07-14 00:56:30",1807242,7.018,115.9,2.518,0.187,24.9,110.4412,26.03,27.05,14.15,0,111.3,13,26.87,77.9
"2016-07-14 00:57:00",1807243,6.525,114,1.741,0.472,25,110.4412,26.03,27.05,14.23,0,111.3,13,26.87,76.0
"2016-07-14 00:57:30",1807244,6.579,110.1,3.022,0.527,25.05,110.4412,26.03,27.04,14.27,0,111.3,13,26.87,72.1
"2016-07-14 00:58:00",1807245,6.698,110.7,2.953,0.275,25.1,110.4412,26.03,27.04,14.35,0,111.3,13,26.87,72.7
"2016-07-14 00:58:30",1807246,7.191,110.8,2.622,0.285,25.16,110.4412,26.03,27.06,14.27,0,111.3,13,26.87,72.8
"2016-07-14 00:59:00",1807247,7.151,111.5,1.721,0.181,25.2,110.4412,26.03,27.04,14.33,0,111.3,12.99,26.87,73.5
"2016-07-14 00:59:30",1807248,7.099,112.1,1.458,0.171,25.22,110.4412,26.03,27.04,14.32,0,111.3,13,26.87,74.1
"2016-07-14 01:00:00",1807249,6.875,114.7,2.003,0.191,25.29,110.4412,26.03,27.04,14.29,0,111.3,13,26.87,76.7
"2016-07-14 01:00:30",1807250,7,113.5,1.93,0.118,25.28,110.4379,26.02,27.03,14.29,0,111.3,12.99,26.86,75.5
"2016-07-14 01:01:00",1807251,7.133,112.4,1.642,0.172,25.28,110.43,26,27.03,14.38,0,111.3,13,26.84,74.4
"2016-07-14 01:01:30",1807252,7.236,110.5,2.265,0.509,25.29,110.4137,25.96,27.02,14.42,0,111.3,13,26.80,72.5
"2016-07-14 01:02:00",1807253,6.579,115.7,5.365,0.405,25.3,110.4075,25.94,27.01,14.36,0,111.3,12.99,26.78,77.7
"2016-07-14 01:02:30",1807254,7.092,115.2,3.353,0.16,25.36,110.4075,25.94,26.99,14.34,0,111.3,12.99,26.78,77.2
"2016-07-14 01:03:00",1807255,6.84,115.2,3.758,0.296,25.36,110.4075,25.94,27,14.48,0,111.3,12.99,26.78,77.2
"2016-07-14 01:03:30",1807256,7.058,111.8,2.649,0.2,25.37,110.4049,25.93,26.97,14.48,0,111.3,12.99,26.78,73.8
"2016-07-14 01:04:00",1807257,7.439,112.1,3.325,0.331,25.35,110.3889,25.89,26.97,14.58,0,111.3,12.99,26.74,74.1
"2016-07-14 01:04:30",1807258,7.624,116.7,1.418,0.153,25.36,110.3805,25.87,26.96,14.43,0,111.3,12.99,26.71,78.7
"2016-07-14 01:05:00",1807259,7.33,114.3,1.396,0.178,25.33,110.3813,25.87,26.95,14.38,0,111.3,12.99,26.72,76.3
"2016-07-14 01:05:30",1807260,7.863,116.5,2.448,0.34,25.32,110.3835,25.88,26.92,14.22,0,111.3,12.99,26.72,78.5
"2016-07-14 01:06:00",1807261,8.04,114.5,1.513,0.207,25.34,110.3863,25.89,26.92,14.36,0,111.3,12.99,26.73,76.5
"2016-07-14 01:06:30",1807262,7.883,109.6,2.352,0.253,25.36,110.3768,25.86,26.9,14.81,0,111.3,12.99,26.70,71.6
"2016-07-14 01:07:00",1807263,7.753,113.7,2.397,0.278,25.35,110.3716,25.85,26.89,14.81,0,111.3,12.99,26.69,75.7
"2016-07-14 01:07:30",1807264,7.832,115.6,1.036,0.339,25.34,110.3656,25.83,26.89,14.39,0,111.3,13,26.68,77.6
"2016-07-14 01:08:00",1807265,7.782,113.8,1.854,0.27,25.36,110.3671,25.84,26.86,14.45,0,111.3,13,26.68,75.8
"2016-07-14 01:08:30",1807266,7.962,112.4,1.998,0.229,25.35,110.369,25.84,26.86,14.62,0,111.3,13,26.68,74.4
"2016-07-14 01:09:00",1807267,8.08,115.7,1.095,0.153,25.33,110.3682,25.84,26.84,14.21,0,111.3,13,26.68,77.7
"2016-07-14 01:09:30",1807268,7.969,116.2,1.354,0.28,25.34,110.3637,25.83,26.83,14.29,0,111.3,13,26.67,78.2
"2016-07-14 01:10:00",1807269,7.638,113.7,1.915,0.227,25.34,110.3495,25.79,26.81,14.27,0,111.3,13.01,26.63,75.7
"2016-07-14 01:10:30",1807270,6.985,111.5,0.567,0.349,25.31,110.343,25.78,26.79,14.49,0,111.3,13.01,26.62,73.5
"2016-07-14 01:11:00",1807271,6.754,112.9,1.764,0.205,25.34,110.3437,25.78,26.78,14.66,0,111.3,13.01,26.62,74.9
"2016-07-14 01:11:30",1807272,7.248,114.5,1.192,0.281,25.36,110.3437,25.78,26.78,14.39,0,111.3,13.01,26.62,76.5
"2016-07-14 01:12:00",1807273,6.932,112.6,2.064,0.247,25.34,110.3411,25.77,26.77,14.43,0,111.3,13.01,26.61,74.6
"2016-07-14 01:12:30",1807274,6.788,109.2,1.127,0.195,25.37,110.3355,25.76,26.76,14.46,0,111.3,13.01,26.60,71.2
"2016-07-14 01:13:00",1807275,7.392,114.1,2.043,0.251,25.35,110.3223,25.72,26.75,14.54,0,111.3,13.01,26.56,76.1
"2016-07-14 01:13:30",1807276,7.067,113.5,1.383,0.323,25.3,110.3108,25.69,26.74,14.96,0,111.3,13.01,26.53,75.5
"2016-07-14 01:14:00",1807277,6.893,115.4,3.307,0.184,25.32,110.31,25.69,26.72,14.65,0,111.3,13.01,26.53,77.4
"2016-07-14 01:14:30",1807278,7.065,113.5,1.558,0.204,25.24,110.31,25.69,26.72,14.61,0,111.3,13.01,26.53,75.5
"2016-07-14 01:15:00",1807279,7.041,114.1,2.223,0.19,25.31,110.31,25.69,26.7,14.56,0,111.3,13.01,26.53,76.1
"2016-07-14 01:15:30",1807280,7.021,115.2,2.386,0.145,25.3,110.3074,25.68,26.7,14.39,0,111.3,13.01,26.53,77.2
"2016-07-14 01:16:00",1807281,6.907,114.2,0.822,0.148,25.27,110.2971,25.66,26.69,14.42,0,111.3,13.01,26.50,76.2
"2016-07-14 01:16:30",1807282,6.973,116.5,1.443,0.217,25.24,110.2799,25.61,26.67,14.37,0,111.3,13.01,26.46,78.5
"2016-07-14 01:17:00",1807283,7.157,117.1,0.986,0.128,25.33,110.2763,25.6,26.67,14.32,0,111.3,13.01,26.45,79.1
"2016-07-14 01:17:30",1807284,7.202,116.3,0.792,0.099,25.29,110.2763,25.6,26.65,14.27,0,111.2,13.01,26.45,78.3
"2016-07-14 01:18:00",1807285,7.371,117.5,0.608,0.131,25.2,110.2763,25.6,26.66,14.25,0,111.2,13.01,26.45,79.5
"2016-07-14 01:18:30",1807286,7.469,117.9,0.929,0.086,25.15,110.2763,25.6,26.64,14.2,0,111.3,13.01,26.45,79.9
"2016-07-14 01:19:00",1807287,7.325,117.9,1.05,0.156,25.24,110.2754,25.6,26.63,14.2,0,111.2,13.01,26.44,79.9
"2016-07-14 01:19:30",1807288,7.233,118.3,0.329,0.054,25.26,110.2698,25.59,26.61,14.11,0,111.2,13.01,26.43,80.3
"2016-07-14 01:20:00",1807289,7.111,119.6,1.209,0.076,25.26,110.2614,25.57,26.61,14.02,0,111.2,13.01,26.41,81.6
"2016-07-14 01:20:30",1807290,7.073,121.1,0.766,0.058,25.28,110.2549,25.55,26.6,13.9,0,111.2,13.01,26.39,83.1
"2016-07-14 01:21:00",1807291,7.167,122.3,0.558,0.042,25.28,110.2486,25.53,26.6,13.93,0,111.2,13.01,26.37,84.3
"2016-07-14 01:21:30",1807292,7.057,123.6,0.532,0.11,25.29,110.2471,25.53,26.59,13.95,0,111.2,13.01,26.37,85.6
"2016-07-14 01:22:00",1807293,6.945,122.3,0.948,0.066,25.25,110.2469,25.53,26.58,13.96,0,111.2,13.01,26.37,84.3
"2016-07-14 01:22:30",1807294,7.044,119.2,2.097,0.14,25.18,110.2484,25.53,26.58,14.05,0,111.2,13.01,26.37,81.2
"2016-07-14 01:23:00",1807295,6.917,120,1.179,0.084,25.16,110.2531,25.54,26.58,14.1,0,111.2,13.01,26.39,82.0
"2016-07-14 01:23:30",1807296,6.821,122.3,1.06,0.069,25.25,110.255,25.55,26.57,13.96,0,111.2,13.01,26.39,84.3
"2016-07-14 01:24:00",1807297,6.764,123.3,0.936,0.091,25.28,110.2571,25.56,26.57,13.95,0,111.2,13.01,26.40,85.3
"2016-07-14 01:24:30",1807298,6.633,120.7,0.871,0.13,25.2,110.2612,25.57,26.58,13.97,0,111.2,13.01,26.41,82.7
"2016-07-14 01:25:00",1807299,6.627,119.1,1.206,0.135,25.2,110.2646,25.57,26.58,13.97,0,111.2,13.01,26.42,81.1
"2016-07-14 01:25:30",1807300,6.759,118.3,0.991,0.106,25.13,110.2686,25.58,26.57,13.95,0,111.2,13.01,26.43,80.3
"2016-07-14 01:26:00",1807301,6.71,119.7,0.863,0.113,25.12,110.2698,25.59,26.58,13.94,0,111.2,13.02,26.43,81.7
"2016-07-14 01:26:30",1807302,6.663,119,1.63,0.069,25.11,110.2713,25.59,26.59,13.97,0,111.2,13.02,26.43,81.0
"2016-07-14 01:27:00",1807303,6.6,118.7,1.614,0.173,25.09,110.276,25.6,26.59,13.96,0,111.2,13.02,26.45,80.7
"2016-07-14 01:27:30",1807304,6.728,119.1,1.833,0.208,25.15,110.2753,25.6,26.58,13.97,0,111.2,13.01,26.44,81.1
"2016-07-14 01:28:00",1807305,6.926,117.8,0.844,0.137,25.17,110.2786,25.61,26.59,13.96,0,111.2,13.02,26.45,79.8
"2016-07-14 01:28:30",1807306,6.796,115.3,1.42,0.086,25.07,110.2809,25.62,26.6,14.01,0,111.2,13.02,26.46,77.3
"2016-07-14 01:29:00",1807307,6.739,113.8,1.116,0.124,25.1,110.2848,25.63,26.59,14.14,0,111.2,13.02,26.47,75.8
"2016-07-14 01:29:30",1807308,6.833,111.5,2.077,0.196,25.14,110.2826,25.62,26.6,14.22,0,111.2,13.02,26.46,73.5
"2016-07-14 01:30:00",1807309,6.586,111.8,0.991,0.237,25.12,110.2816,25.62,26.59,14.31,0,111.2,13.02,26.46,73.8
"2016-07-14 01:30:30",1807310,6.806,113.3,0.985,0.084,25.22,110.28,25.61,26.58,14.29,0,111.2,13.01,26.46,75.3
"2016-07-14 01:31:00",1807311,6.665,112.5,1.015,0.072,25.13,110.2794,25.61,26.59,14.28,0,111.2,13.02,26.45,74.5
"2016-07-14 01:31:30",1807312,6.679,112.2,0.634,0.126,25.16,110.2797,25.61,26.6,14.29,0,111.2,13.02,26.45,74.2
"2016-07-14 01:32:00",1807313,6.608,112.2,0.788,0.052,25.06,110.2797,25.61,26.6,14.23,0,111.2,13.02,26.45,74.2
"2016-07-14 01:32:30",1807314,6.589,112.2,0.771,0.041,25.05,110.2797,25.61,26.6,14.15,0,111.2,13.02,26.45,74.2
"2016-07-14 01:33:00",1807315,6.68,111.7,0.992,0.072,25.12,110.2797,25.61,26.59,14.27,0,111.2,13.02,26.45,73.7
"2016-07-14 01:33:30",1807316,6.582,110.7,0.716,0.058,25.03,110.2797,25.61,26.58,14.25,0,111.2,13.02,26.45,72.7
"2016-07-14 01:34:00",1807317,6.626,110.3,0.912,0.065,25.04,110.2797,25.61,26.58,14.44,0,111.2,13.02,26.45,72.3
"2016-07-14 01:34:30",1807318,6.617,107,1.244,0.094,25.09,110.2795,25.61,26.57,14.6,0,111.2,13.02,26.45,69.0
"2016-07-14 01:35:00",1807319,6.639,107.9,0.816,0.12,25.13,110.2755,25.6,26.57,14.66,0,111.2,13.02,26.44,69.9
"2016-07-14 01:35:30",1807320,6.697,106.6,0.852,0.164,25.01,110.2691,25.59,26.56,14.6,0,111.2,13.02,26.43,68.6
"2016-07-14 01:36:00",1807321,6.77,108.2,0.712,0.095,25.07,110.2564,25.55,26.56,14.62,0,111.2,13.02,26.39,70.2
"2016-07-14 01:36:30",1807322,6.976,108.1,0.624,0.087,24.96,110.2466,25.53,26.57,14.52,0,111.2,13.02,26.37,70.1
"2016-07-14 01:37:00",1807323,6.984,108.9,0.754,0.075,24.94,110.246,25.53,26.55,14.55,0,111.2,13.02,26.37,70.9
"2016-07-14 01:37:30",1807324,7.017,110.1,0.66,0.085,24.97,110.246,25.53,26.55,14.67,0,111.2,13.02,26.37,72.1
"2016-07-14 01:38:00",1807325,7.061,110.6,0.561,0.101,25.03,110.246,25.53,26.53,14.74,0,111.2,13.02,26.37,72.6
"2016-07-14 01:38:30",1807326,7.145,110.2,0.549,0.106,25.06,110.246,25.53,26.53,14.64,0,111.2,13.01,26.37,72.2
"2016-07-14 01:39:00",1807327,6.813,110,1.466,0.141,25.14,110.2441,25.52,26.52,14.68,0,111.2,13.02,26.36,72.0
"2016-07-14 01:39:30",1807328,6.478,109.9,0.806,0.058,25.09,110.239,25.51,26.52,14.61,0,111.2,13.01,26.35,71.9
"2016-07-14 01:40:00",1807329,6.603,108.9,0.776,0.131,25.23,110.2312,25.49,26.51,14.62,0,111.2,13.01,26.33,70.9
"2016-07-14 01:40:30",1807330,6.82,108.4,0.926,0.127,25.22,110.2151,25.45,26.51,14.78,0,111.2,13.01,26.29,70.4
"2016-07-14 01:41:00",1807331,6.885,107.5,0.718,0.08,25.26,110.2126,25.44,26.49,14.8,0,111.2,13.01,26.28,69.5
"2016-07-14 01:41:30",1807332,7.131,109.9,1.257,0.125,25.1,110.2123,25.44,26.49,14.9,0,111.2,13.02,26.28,71.9
"2016-07-14 01:42:00",1807333,6.989,110.2,1.167,0.13,25.19,110.2123,25.44,26.48,14.94,0,111.2,13.02,26.28,72.2
"2016-07-14 01:42:30",1807334,6.956,112.2,1.061,0.094,25.24,110.2123,25.44,26.47,14.86,0,111.2,13.02,26.28,74.2
"2016-07-14 01:43:00",1807335,7.032,113.1,0.901,0.086,25.19,110.2118,25.44,26.45,14.69,0,111.2,13.02,26.28,75.1
"2016-07-14 01:43:30",1807336,6.949,113.2,0.878,0.079,25.21,110.2092,25.43,26.47,14.76,0,111.2,13.02,26.27,75.2
"2016-07-14 01:44:00",1807337,7.007,112.6,0.735,0.088,25.2,110.1918,25.39,26.45,14.81,0,111.2,13.02,26.23,74.6
"2016-07-14 01:44:30",1807338,7.049,112.7,0.476,0.116,25.18,110.182,25.36,26.45,14.68,0,111.2,13.02,26.20,74.7
"2016-07-14 01:45:00",1807339,6.936,113.4,0.652,0.071,25.3,110.1786,25.35,26.43,14.63,0,111.2,13.03,26.19,75.4
"2016-07-14 01:45:30",1807340,6.943,114,0.362,0.064,25.27,110.1786,25.35,26.42,14.59,0,111.2,13.03,26.19,76.0
"2016-07-14 01:46:00",1807341,7.142,113.1,0.628,0.117,25.15,110.1786,25.35,26.41,14.53,0,111.2,13.03,26.19,75.1
"2016-07-14 01:46:30",1807342,7.219,113.3,0.601,0.055,25.03,110.1786,25.35,26.39,14.49,0,111.2,13.03,26.19,75.3
"2016-07-14 01:47:00",1807343,7.169,114,0.64,0.062,25.05,110.1786,25.35,26.4,14.5,0,111.2,13.03,26.19,76.0
"2016-07-14 01:47:30",1807344,7.261,114.2,0.652,0.133,25.11,110.1769,25.35,26.37,14.51,0,111.2,13.03,26.19,76.2
"2016-07-14 01:48:00",1807345,7.606,113.1,0.587,0.073,25.13,110.1711,25.33,26.37,14.5,0,111.2,13.03,26.17,75.1